When you browse on this site, cookies collect data to enhance your experience and personalize the content and advertising you see.
Visit our Privacy Policy to learn more. By continuing to use the site, you agree to this use of cookies and data.
  • In Spain
  • List of Countries
  • For 7 days
  • Water Temperature
  • Weather Map
  • Weather Widgets
  • user-avatar
    Login

    Hourly Weather Mongu

    Today, 22 October, Tuesday

    Time Temperature Precipitation Wind Pressure Humidity
    00:00 +27°C° 0 mm 1 mps 671 mmHg 17%
    01:00 +26°C° 0 mm 1 mps 670 mmHg 19%
    02:00 +26°C° 0 mm 2 mps 670 mmHg 18%
    03:00 +25°C° 0 mm 1 mps 670 mmHg 19%
    04:00 +25°C° 0 mm 1 mps 670 mmHg 19%
    05:00 +24°C° 0 mm 1 mps 670 mmHg 20%
    06:00 +26°C° 0 mm 2 mps 671 mmHg 19%
    07:00 +29°C° 0 mm 2 mps 672 mmHg 17%
    08:00 +31°C° 0 mm 3 mps 673 mmHg 15%
    09:00 +35°C° 0 mm 3 mps 673 mmHg 14%
    10:00 +37°C° 0 mm 3 mps 673 mmHg 12%
    11:00 +40°C° 0 mm 2 mps 673 mmHg 10%
    12:00 +41°C° 0 mm 2 mps 672 mmHg 9%
    13:00 +42°C° 0 mm 2 mps 672 mmHg 8%
    14:00 +43°C° 0 mm 2 mps 671 mmHg 7%
    15:00 +43°C° 0 mm 2 mps 670 mmHg 8%
    16:00 +42°C° 0 mm 2 mps 670 mmHg 8%
    17:00 +42°C° 0 mm 2 mps 669 mmHg 8%
    18:00 +39°C° 0 mm 2 mps 669 mmHg 11%
    19:00 +36°C° 0 mm 2 mps 669 mmHg 13%
    20:00 +32°C° 0 mm 2 mps 669 mmHg 16%
    21:00 +31°C° 0 mm 2 mps 669 mmHg 17%
    22:00 +31°C° 0 mm 2 mps 670 mmHg 19%
    23:00 +30°C° 0 mm 2 mps 670 mmHg 20%

    Tomorrow, 23 October, Wednesday

    Time Temperature Precipitation Wind Pressure Humidity
    00:00 +29°C° 0 mm 2 mps 670 mmHg 23%
    01:00 +29°C° 0 mm 3 mps 670 mmHg 26%
    02:00 +28°C° 0 mm 3 mps 670 mmHg 29%
    03:00 +27°C° 0 mm 3 mps 670 mmHg 37%
    04:00 +26°C° 0 mm 3 mps 670 mmHg 44%
    05:00 +25°C° 0 mm 2 mps 670 mmHg 51%
    06:00 +26°C° 0 mm 3 mps 671 mmHg 50%
    07:00 +28°C° 0 mm 4 mps 672 mmHg 48%
    08:00 +29°C° 0 mm 5 mps 673 mmHg 47%
    09:00 +32°C° 0 mm 4 mps 673 mmHg 40%
    10:00 +35°C° 0 mm 4 mps 673 mmHg 34%
    11:00 +38°C° 0 mm 3 mps 673 mmHg 27%
    12:00 +39°C° 0 mm 3 mps 672 mmHg 24%
    13:00 +40°C° 0 mm 3 mps 672 mmHg 20%
    14:00 +41°C° 0 mm 2 mps 671 mmHg 17%
    15:00 +40°C° 0 mm 2 mps 671 mmHg 18%
    16:00 +39°C° 0 mm 3 mps 670 mmHg 19%
    17:00 +38°C° 0 mm 3 mps 670 mmHg 21%
    18:00 +36°C° 0 mm 2 mps 670 mmHg 24%
    19:00 +33°C° 0 mm 1 mps 670 mmHg 27%
    20:00 +29°C° 0 mm 0 mps 670 mmHg 30%
    21:00 +30°C° 0 mm 1 mps 670 mmHg 32%
    22:00 +30°C° 0 mm 3 mps 671 mmHg 34%
    23:00 +29°C° 0 mm 4 mps 671 mmHg 36%

    Day after tomorrow, 24 October, Thursday

    Time Temperature Precipitation Wind Pressure Humidity
    00:00 +28°C° 0 mm 3 mps 671 mmHg 40%
    01:00 +27°C° 0 mm 2 mps 670 mmHg 44%
    02:00 +26°C° 0 mm 2 mps 670 mmHg 48%
    03:00 +26°C° 0 mm 2 mps 670 mmHg 50%
    04:00 +25°C° 0 mm 1 mps 670 mmHg 52%
    05:00 +24°C° 0 mm 1 mps 670 mmHg 53%
    06:00 +26°C° 0 mm 2 mps 671 mmHg 49%
    07:00 +28°C° 0 mm 2 mps 672 mmHg 44%
    08:00 +29°C° 0 mm 3 mps 673 mmHg 39%
    09:00 +33°C° 0 mm 3 mps 673 mmHg 33%
    10:00 +37°C° 0 mm 3 mps 674 mmHg 27%
    11:00 +40°C° 0 mm 3 mps 674 mmHg 20%
    12:00 +40°C° 0 mm 2 mps 673 mmHg 19%
    13:00 +40°C° 0 mm 2 mps 672 mmHg 18%
    14:00 +40°C° 0 mm 2 mps 671 mmHg 17%
    15:00 +40°C° 0 mm 2 mps 671 mmHg 18%
    16:00 +39°C° 0 mm 3 mps 670 mmHg 18%
    17:00 +39°C° 0 mm 3 mps 670 mmHg 19%
    18:00 +37°C° 0 mm 2 mps 670 mmHg 21%
    19:00 +34°C° 0 mm 1 mps 670 mmHg 24%
    20:00 +32°C° 0 mm 1 mps 670 mmHg 27%
    21:00 +31°C° 0.2 mm 2 mps 671 mmHg 31%
    22:00 +30°C° 0.2 mm 3 mps 671 mmHg 36%
    23:00 +29°C° 0.2 mm 5 mps 672 mmHg 40%

    25 October, Friday

    Time Temperature Precipitation Wind Pressure Humidity
    00:00 +28°C° 0 mm 4 mps 671 mmHg 46%
    01:00 +27°C° 0 mm 3 mps 671 mmHg 51%
    02:00 +25°C° 0 mm 3 mps 671 mmHg 57%
    03:00 +25°C° 0 mm 3 mps 672 mmHg 58%
    04:00 +25°C° 0 mm 3 mps 672 mmHg 59%
    05:00 +25°C° 0 mm 3 mps 672 mmHg 60%
    06:00 +26°C° 0 mm 3 mps 673 mmHg 57%
    07:00 +27°C° 0 mm 3 mps 673 mmHg 54%
    08:00 +28°C° 0 mm 3 mps 674 mmHg 51%
    09:00 +31°C° 0 mm 3 mps 674 mmHg 44%
    10:00 +34°C° 0 mm 3 mps 674 mmHg 36%
    11:00 +37°C° 0 mm 3 mps 674 mmHg 28%
    12:00 +39°C° 0 mm 2 mps 674 mmHg 25%
    13:00 +41°C° 0 mm 2 mps 673 mmHg 21%
    14:00 +43°C° 0 mm 1 mps 673 mmHg 18%
    15:00 +41°C° 0 mm 1 mps 672 mmHg 20%
    16:00 +39°C° 0 mm 2 mps 671 mmHg 23%
    17:00 +37°C° 0 mm 2 mps 671 mmHg 25%
    18:00 +34°C° 0 mm 1 mps 671 mmHg 28%
    19:00 +33°C° 0 mm 1 mps 671 mmHg 32%
    20:00 +31°C° 0 mm 1 mps 671 mmHg 35%
    21:00 +30°C° 0 mm 1 mps 672 mmHg 36%
    22:00 +30°C° 0 mm 1 mps 672 mmHg 37%
    23:00 +29°C° 0 mm 1 mps 673 mmHg 39%

    26 October, Saturday

    Time Temperature Precipitation Wind Pressure Humidity
    00:00 +29°C° 0 mm 2 mps 672 mmHg 41%
    01:00 +28°C° 0 mm 3 mps 672 mmHg 44%
    02:00 +27°C° 0 mm 4 mps 671 mmHg 47%
    03:00 +27°C° 0 mm 4 mps 672 mmHg 52%
    04:00 +26°C° 0 mm 3 mps 672 mmHg 56%
    05:00 +25°C° 0 mm 3 mps 672 mmHg 61%
    06:00 +26°C° 0 mm 3 mps 672 mmHg 57%
    07:00 +28°C° 0 mm 3 mps 673 mmHg 52%
    08:00 +29°C° 0 mm 3 mps 673 mmHg 48%
    09:00 +34°C° 0 mm 2 mps 674 mmHg 38%
    10:00 +37°C° 0 mm 1 mps 674 mmHg 29%
    11:00 +42°C° 0 mm 1 mps 675 mmHg 20%
    12:00 +42°C° 0 mm 1 mps 674 mmHg 19%
    13:00 +41°C° 0 mm 1 mps 673 mmHg 19%
    14:00 +40°C° 0 mm 1 mps 672 mmHg 18%
    15:00 +40°C° 0 mm 1 mps 671 mmHg 19%
    16:00 +39°C° 0 mm 1 mps 671 mmHg 19%
    17:00 +39°C° 0 mm 1 mps 670 mmHg 19%
    18:00 +36°C° 0 mm 1 mps 670 mmHg 22%
    19:00 +34°C° 0 mm 1 mps 670 mmHg 26%
    20:00 +32°C° 0 mm 1 mps 670 mmHg 29%
    21:00 +31°C° 0 mm 1 mps 670 mmHg 31%
    22:00 +30°C° 0 mm 1 mps 670 mmHg 33%
    23:00 +30°C° 0 mm 1 mps 671 mmHg 35%

    27 October, Sunday

    Time Temperature Precipitation Wind Pressure Humidity
    00:00 +29°C° 0 mm 1 mps 670 mmHg 36%
    01:00 +29°C° 0 mm 1 mps 670 mmHg 37%
    02:00 +29°C° 0 mm 1 mps 670 mmHg 38%
    03:00 +28°C° 0 mm 1 mps 670 mmHg 39%
    04:00 +28°C° 0 mm 2 mps 670 mmHg 40%
    05:00 +27°C° 0 mm 2 mps 670 mmHg 41%
    06:00 +28°C° 0 mm 2 mps 671 mmHg 40%
    07:00 +29°C° 0 mm 3 mps 671 mmHg 40%
    08:00 +30°C° 0 mm 3 mps 672 mmHg 39%
    09:00 +34°C° 0 mm 3 mps 672 mmHg 33%
    10:00 +38°C° 0 mm 2 mps 673 mmHg 26%
    11:00 +41°C° 0 mm 2 mps 673 mmHg 20%
    12:00 +41°C° 0 mm 2 mps 672 mmHg 19%
    13:00 +41°C° 0 mm 2 mps 671 mmHg 18%
    14:00 +40°C° 0 mm 2 mps 670 mmHg 17%
    15:00 +40°C° 0 mm 1 mps 670 mmHg 17%
    16:00 +40°C° 0 mm 1 mps 669 mmHg 17%
    17:00 +40°C° 0 mm 1 mps 669 mmHg 17%
    18:00 +36°C° 0 mm 1 mps 669 mmHg 21%
    19:00 +34°C° 0 mm 1 mps 669 mmHg 24%
    20:00 +32°C° 0 mm 1 mps 669 mmHg 27%
    21:00 +31°C° 0 mm 1 mps 669 mmHg 29%
    22:00 +30°C° 0 mm 1 mps 669 mmHg 31%
    23:00 +29°C° 0 mm 1 mps 669 mmHg 33%

    28 October, Monday

    Time Temperature Precipitation Wind Pressure Humidity
    00:00 +28°C° 0 mm 1 mps 669 mmHg 34%
    01:00 +28°C° 0 mm 2 mps 669 mmHg 36%
    02:00 +28°C° 0 mm 2 mps 669 mmHg 37%
    03:00 +27°C° 0 mm 2 mps 669 mmHg 43%
    04:00 +26°C° 0 mm 2 mps 669 mmHg 49%
    05:00 +25°C° 0 mm 3 mps 669 mmHg 54%
    06:00 +27°C° 0 mm 3 mps 670 mmHg 52%
    07:00 +28°C° 0 mm 4 mps 671 mmHg 49%
    08:00 +29°C° 0 mm 4 mps 671 mmHg 47%
    09:00 +33°C° 0 mm 4 mps 672 mmHg 40%
    10:00 +35°C° 0 mm 4 mps 672 mmHg 34%
    11:00 +38°C° 0 mm 4 mps 672 mmHg 27%
    12:00 +39°C° 0 mm 3 mps 671 mmHg 23%
    13:00 +40°C° 0 mm 3 mps 671 mmHg 20%
    14:00 +41°C° 0 mm 2 mps 670 mmHg 16%
    15:00 +41°C° 0 mm 2 mps 670 mmHg 17%
    16:00 +40°C° 0 mm 2 mps 669 mmHg 18%
    17:00 +39°C° 0 mm 2 mps 669 mmHg 19%
    18:00 +37°C° 0 mm 2 mps 669 mmHg 22%
    19:00 +34°C° 0 mm 1 mps 669 mmHg 25%
    20:00 +31°C° 0 mm 1 mps 669 mmHg 28%
    21:00 +30°C° 0.2 mm 1 mps 669 mmHg 33%
    22:00 +29°C° 0.2 mm 2 mps 670 mmHg 37%
    23:00 +28°C° 0.2 mm 3 mps 670 mmHg 41%
    Show more